(487443) = 2008 LF17 = 2014 RM61

Discovered at Kitt Peak on 2008-06-10 by Spacewatch.

Orbit

Orbit type: Main Belt

Note: WebGL enabled browser required.

epoch2023-02-25.0
epoch JD2460000.5
perihelion date2019-09-28.91949
perihelion JD2458755.41949
argument of perihelion (°)212.79585
ascending node (°)105.24456
inclination (°)10.26983
eccentricity0.2299593
perihelion distance (AU)2.3441918
Tisserand w.r.t. Jupiter3.2
ΔV w.r.t. Earth (km/sec)10.1
semimajor axis (AU)3.0442441
mean anomaly (°)231.03728
mean daily motion (°/day)0.18556010
aphelion distance (AU)3.744
period (years)5.31
P-vector [x]0.73524420
P-vector [y]-0.57711554
P-vector [z]-0.35546255
Q-vector [x]0.65561290
Q-vector [y]0.73861951
Q-vector [z]0.15688511
absolute magnitude16.18
phase slope0.15
uncertainty0
referenceMPO 745323
observations used232
oppositions12
arc length (days)6286
first opposition used2006
last opposition used2023
residual rms (arc-secs)0.78
perturbers coarse indicatorM-v
perturbers precise indicator003Ek
first observation date used2006-01-28.0
last observation date used2023-04-15.0
computer nameMPCLINUX
JD of orbit computation2457807.355735
perihelion JD uncertainty (days)1.1452E-04
argument of perihelion uncertainty (°)2.5867E-05
ascending node uncertainty (°)2.4074E-05
inclination uncertainty (°)3.9031E-06
eccentricity uncertainty 1.0264E-07
perihelion distance uncertainty (AU)2.6307E-07
Minimum Orbit Intersection Distances (in AU)
for orbit epoch: 2458200.5, reference: MPO413572
Mercury1.91112
Venus1.60873
Earth1.32905
Mars0.948701
Jupiter1.57293
Saturn5.43686
Uranus14.5642
Neptune26.3327

Observations

237 total observations over interval: 2006 01 28.26675 – 2023 04 15.288495
These data are available for download (format description).

Date (UT) J2000 RA J2000 Dec Magn Location Ref
2006 01 28.26675 07 56 27.34 +24 14 35.2 21.8 V G96 – Mt. Lemmon Survey MPS 778795
2006 01 28.27204 07 56 27.09 +24 14 36.7 21.5 V G96 – Mt. Lemmon Survey MPS 778795
2006 01 28.27733 07 56 26.77 +24 14 37.8 21.3 V G96 – Mt. Lemmon Survey MPS 778795
2008 05 08.31025 16 21 38.03 -09 46 54.6 19.5 R G92 – Jarnac Observatory, Vail MPS 778795
2008 05 08.32465 16 21 37.42 -09 46 53.8 19.0 R G92 – Jarnac Observatory, Vail MPS 778795
2008 05 08.33902 16 21 36.76 -09 46 53.4 19.1 R G92 – Jarnac Observatory, Vail MPS 778795
2008 05 08.35341 16 21 36.02 -09 46 51.8 19.7 R G92 – Jarnac Observatory, Vail MPS 778795
2008 05 08.36709 16 21 35.44 -09 46 51.3 20.1 R G92 – Jarnac Observatory, Vail MPS 778795
2008 05 08.38076 16 21 34.83 -09 46 49.9 19.5 R G92 – Jarnac Observatory, Vail MPS 778795
2008 06 10.34790 15 54 00.23 -09 52 49.2 20.2 V 691 – Steward Observatory, Kitt Peak-Spacewatch MPS 251703
2008 06 10.36558 15 53 59.37 -09 52 51.2 20.1 V 691 – Steward Observatory, Kitt Peak-Spacewatch MPS 251703
2008 06 10.38326 15 53 58.49 -09 52 53.3 20.3 V 691 – Steward Observatory, Kitt Peak-Spacewatch MPS 251703
2008 06 14.24783 15 51 03.70 -10 01 13.0 20.1 V 691 – Steward Observatory, Kitt Peak-Spacewatch MPS 251703
2008 06 14.26552 15 51 02.89 -10 01 14.9 20.2 V 691 – Steward Observatory, Kitt Peak-Spacewatch MPS 251703
2008 06 14.28324 15 51 02.10 -10 01 18.0 20.2 V 691 – Steward Observatory, Kitt Peak-Spacewatch MPS 251703
2009 11 11.24221 01 39 39.45 -05 43 38.4 21.4 V 703 – Catalina Sky Survey MPS 778795
2009 11 11.25135 01 39 38.98 -05 43 37.4 20.3 V 703 – Catalina Sky Survey MPS 778795
2009 11 11.26059 01 39 38.70 -05 43 37.0 20.6 V 703 – Catalina Sky Survey MPS 778795
2009 11 11.26969 01 39 38.30 -05 43 35.6 20.6 V 703 – Catalina Sky Survey MPS 778795
2013 04 09.322604 14 41 13.94 -00 39 31.1 21.4 r 309 – Cerro Paranal MPS 804905
2013 04 09.327280 14 41 13.75 -00 39 29.8 21.3 r 309 – Cerro Paranal MPS 804905
2013 04 09.331944 14 41 13.57 -00 39 28.6 21.5 r 309 – Cerro Paranal MPS 804905
2013 04 09.336632 14 41 13.36 -00 39 27.1 21.7 r 309 – Cerro Paranal MPS 804905
2013 04 09.341296 14 41 13.19 -00 39 25.9 21.6 r 309 – Cerro Paranal MPS 804905
2013 04 17.50281 14 35 32.202 -00 03 02.75 20.8 w F51 – Pan-STARRS 1, Haleakala MPS 778795
2013 04 17.51798 14 35 31.496 -00 02 58.86 20.7 w F51 – Pan-STARRS 1, Haleakala MPS 778795
2013 04 17.53313 14 35 30.796 -00 02 54.91 20.7 w F51 – Pan-STARRS 1, Haleakala MPS 778795
2014 08 28.50597 23 32 15.629 -18 59 31.01 19.4 w F51 – Pan-STARRS 1, Haleakala MPS 547848
2014 08 28.51668 23 32 15.205 -18 59 36.40 19.4 w F51 – Pan-STARRS 1, Haleakala MPS 547848
2014 08 28.52741 23 32 14.776 -18 59 41.77 19.4 w F51 – Pan-STARRS 1, Haleakala MPS 547848
2014 08 28.53816 23 32 14.351 -18 59 47.07 19.4 w F51 – Pan-STARRS 1, Haleakala MPS 547848
2014 09 01.31006 23 29 48.85 -19 30 34.6 19.1 V 703 – Catalina Sky Survey MPS 536854
2014 09 01.31704 23 29 48.61 -19 30 37.0 19.1 V 703 – Catalina Sky Survey MPS 536854
2014 09 01.32402 23 29 48.26 -19 30 39.8 19.2 V 703 – Catalina Sky Survey MPS 536854
2014 09 13.43078 23 21 16.526 -20 54 09.02 19.2 i F51 – Pan-STARRS 1, Haleakala MPS 536854
2014 09 13.44131 23 21 16.046 -20 54 12.65 19.2 i F51 – Pan-STARRS 1, Haleakala MPS 536854
2014 11 01.15376 23 05 49.32 -20 32 44.7 19.9 V G96 – Mt. Lemmon Survey MPS 547848
2014 11 01.15996 23 05 49.41 -20 32 43.4 20.0 V G96 – Mt. Lemmon Survey MPS 547848
2014 11 01.16616 23 05 49.46 -20 32 40.4 20.1 V G96 – Mt. Lemmon Survey MPS 547848
2014 11 01.17236 23 05 49.46 -20 32 38.7 20.4 V G96 – Mt. Lemmon Survey MPS 547848
2014 11 20.26173 23 14 50.466 -18 15 02.15 20.9 w F51 – Pan-STARRS 1, Haleakala MPS 547848
2014 11 20.28614 23 14 51.387 -18 14 49.69 21.2 w F51 – Pan-STARRS 1, Haleakala MPS 547848
2014 11 20.29839 23 14 51.873 -18 14 43.38 21.3 w F51 – Pan-STARRS 1, Haleakala MPS 547848
2014 11 22.25870 23 16 13.138 -17 58 04.59 21.1 w F51 – Pan-STARRS 1, Haleakala MPS 547848
2014 11 22.25936 23 16 13.186 -17 58 04.02 21.0 w F51 – Pan-STARRS 1, Haleakala MPS 547848
2014 11 22.27093 23 16 13.648 -17 57 58.02 21.1 w F51 – Pan-STARRS 1, Haleakala MPS 547848
2014 11 22.27159 23 16 13.671 -17 57 57.86 21.0 w F51 – Pan-STARRS 1, Haleakala MPS 547848
2014 11 22.28317 23 16 14.156 -17 57 51.69 21.1 w F51 – Pan-STARRS 1, Haleakala MPS 547848
2014 11 22.28383 23 16 14.176 -17 57 51.58 21.1 w F51 – Pan-STARRS 1, Haleakala MPS 547848
2014 11 22.29539 23 16 14.652 -17 57 45.57 21.0 w F51 – Pan-STARRS 1, Haleakala MPS 547848
2014 11 22.29605 23 16 14.683 -17 57 45.04 21.0 w F51 – Pan-STARRS 1, Haleakala MPS 547848
2016 01 03.28017 05 25 34.98 +18 49 12.9 20.3 V G96 – Mt. Lemmon Survey MPS 665615
2016 01 03.28563 05 25 34.74 +18 49 13.5 20.9 V G96 – Mt. Lemmon Survey MPS 665615
2016 01 03.29111 05 25 34.46 +18 49 14.3 20.5 V G96 – Mt. Lemmon Survey MPS 665615
2016 01 03.29661 05 25 34.19 +18 49 14.8 20.5 V G96 – Mt. Lemmon Survey MPS 665615
2016 01 03.40672 05 25 28.97 +18 49 27.8 20.7 V G96 – Mt. Lemmon Survey MPS 665615
2016 01 03.40943 05 25 28.80 +18 49 28.3 20.9 V G96 – Mt. Lemmon Survey MPS 665615
2016 01 03.41214 05 25 28.68 +18 49 28.7 21.0 V G96 – Mt. Lemmon Survey MPS 665615
2016 01 03.41483 05 25 28.53 +18 49 28.8 21.4 V G96 – Mt. Lemmon Survey MPS 665615
2016 01 14.40080 05 17 55.407 +19 12 46.72 21.4 w F51 – Pan-STARRS 1, Haleakala MPS 668538
2016 01 14.41478 05 17 54.895 +19 12 48.39 21.3 w F51 – Pan-STARRS 1, Haleakala MPS 668538
2016 01 14.42867 05 17 54.381 +19 12 50.40 21.2 w F51 – Pan-STARRS 1, Haleakala MPS 668538
2016 01 14.44257 05 17 53.884 +19 12 51.91 21.3 w F51 – Pan-STARRS 1, Haleakala MPS 668538
2017 01 28.38474 09 40 09.422 +21 42 44.61 21.6 w F51 – Pan-STARRS 1, Haleakala MPS 762294
2017 01 28.39704 09 40 08.871 +21 42 48.73 21.5 w F51 – Pan-STARRS 1, Haleakala MPS 762294
2017 01 28.40923 09 40 08.319 +21 42 53.02 21.7 w F51 – Pan-STARRS 1, Haleakala MPS 762294
2017 01 28.42141 09 40 07.763 +21 42 57.33 21.6 w F51 – Pan-STARRS 1, Haleakala MPS 762294
2017 01 31.43286 09 37 51.55 +21 59 55.2 21.4 V G96 – Mt. Lemmon Survey MPS 762294
2017 01 31.44019 09 37 51.25 +21 59 58.1 21.0 V G96 – Mt. Lemmon Survey MPS 762294
2017 01 31.44654 09 37 50.95 +22 00 00.3 22.4 V G96 – Mt. Lemmon Survey MPS 762294
2017 01 31.45292 09 37 50.64 +22 00 02.6 21.9 V G96 – Mt. Lemmon Survey MPS 762294
2017 02 22.28366 09 20 46.572 +23 47 25.49 21.6 w F51 – Pan-STARRS 1, Haleakala MPS 768306
2017 02 22.33378 09 20 44.297 +23 47 37.69 21.9 w F51 – Pan-STARRS 1, Haleakala MPS 768306
2017 02 22.34744 09 20 43.663 +23 47 40.79 21.7 w F51 – Pan-STARRS 1, Haleakala MPS 768306
2017 02 22.36134 09 20 43.016 +23 47 44.30 21.8 w F51 – Pan-STARRS 1, Haleakala MPS 768306
2018 04 12.34020 13 03 17.941 +09 05 07.44 21.1 w F51 – Pan-STARRS 1, Haleakala MPS 881729
2018 04 12.35318 13 03 17.323 +09 05 10.66 21.3 w F51 – Pan-STARRS 1, Haleakala MPS 881729
2018 04 12.36612 13 03 16.721 +09 05 13.97 21.1 w F51 – Pan-STARRS 1, Haleakala MPS 881729
2018 04 12.37906 13 03 16.110 +09 05 17.05 21.3 w F51 – Pan-STARRS 1, Haleakala MPS 881729
2019 05 04.44780 19 57 45.89 -18 16 37.0 20.2 G G96 – Mt. Lemmon Survey MPS 1143889
2019 05 04.45433 19 57 46.22 -18 16 36.9   G96 – Mt. Lemmon Survey MPS 1143889
2019 05 04.46086 19 57 46.52 -18 16 38.5 20.4 G G96 – Mt. Lemmon Survey MPS 1143889
2019 05 04.46740 19 57 46.85 -18 16 37.1 20.9 G G96 – Mt. Lemmon Survey MPS 1143889
2019 06 07.419200 20 14 11.89 -19 31 28.4 20.08 g I41 – Palomar Mountain--ZTF MPS 1012350
2019 06 07.480240 20 14 11.97 -19 31 44.8 19.56 r I41 – Palomar Mountain--ZTF MPS 1012350
2019 06 10.422500 20 14 14.17 -19 45 35.6 20.08 g I41 – Palomar Mountain--ZTF MPS 1012350
2019 06 10.479870 20 14 13.96 -19 45 51.9 19.64 r I41 – Palomar Mountain--ZTF MPS 1012350
2019 06 23.43948 20 11 34.48 -21 01 26.9 19.1 G G96 – Mt. Lemmon Survey MPS 1012350
2019 06 23.44474 20 11 34.32 -21 01 28.5 19.5 G G96 – Mt. Lemmon Survey MPS 1012350
2019 06 23.45001 20 11 34.20 -21 01 30.9 19.2 G G96 – Mt. Lemmon Survey MPS 1012350
2019 06 23.45526 20 11 34.06 -21 01 33.0 19.1 G G96 – Mt. Lemmon Survey MPS 1012350
2019 06 28.48373 20 09 21.540 -21 36 28.38 19.2 w F51 – Pan-STARRS 1, Haleakala MPS 1012350
